Wind_Speed
15 14 13 12 11 12 12 12 10 9 7 6 7 8 8 8 9 9 8 6 5 5 5 5 5 5 6 7 6 6 6 5 5 4 5 5 6 6 5 5 5 5 5 5 5 5 6 6 6 7 7 8 8 8 8 8 8 7 7 6 6 5 5 5 5 6 6 6 7 7 8 8 8 8 7 6 5 5 5 5 5 6 6 6 7
16 15 14 13 12 13 13 13 12 10 9 8 8 8 8 8 9 9 8 7 6 5 5 5 5 6 6 7 7 6 6 5 5 4 4 5 5 6 5 5 4 5 5 5 5 5 6 6 7 7 8 8 9 9 9 8 8 7 7 7 6 6 6 6 7 7 7 8 8 9 9 9 9 9 8 7 6 6 6 6 6 6 6 7 7
18 16 15 14 14 14 14 14 13 12 10 9 8 9 8 8 9 10 9 7 6 6 5 5 5 6 6 7 7 6 6 5 4 4 4 5 6 6 6 5 4 4 4 4 5 6 7 8 8 8 9 9 9 9 9 8 8 7 7 7 7 7 7 7 7 8 8 9 9 9 10 10 10 9 8 7 7 7 7 7 7 7 7 7 7
19 18 17 16 15 16 15 14 14 13 11 9 9 9 9 8 9 10 9 8 7 6 6 5 5 6 7 7 7 7 6 5 5 4 4 5 6 6 6 5 4 4 4 4 6 7 8 9 9 9 9 9 9 9 9 9 8 8 8 8 7 7 7 7 7 8 8 9 9 10 10 10 9 9 8 8 8 7 7 8 8 8 7 7 7
20 19 18 16 15 15 15 14 14 13 11 10 9 9 8 8 9 10 10 8 8 6 6 6 5 6 7 7 7 7 6 6 5 4 4 5 6 7 6 5 4 3 4 5 7 8 9 9 9 9 9 9 10 10 10 9 9 9 8 8 8 8 8 8 8 8 8 8 9 9 10 10 9 8 8 8 8 8 8 8 9 8 8 8 7
21 20 18 16 14 14 15 14 13 13 12 10 9 9 8 9 9 10 10 9 8 7 6 6 6 6 6 7 8 7 7 6 6 5 4 5 6 6 5 4 3 3 4 6 7 8 9 9 9 9 9 9 10 10 10 9 9 9 9 9 9 9 9 9 9 9 9 9 9 9 9 9 9 8 8 8 8 8 9 9 9 9 8 8 7
22 21 19 17 14 14 15 14 14 14 12 11 10 9 9 9 10 11 11 10 9 8 7 6 6 6 6 7 7 8 7 7 6 6 5 5 5 6 5 4 4 4 5 6 7 8 9 8 8 8 8 9 10 10 10 9 10 10 9 9 10 10 10 10 10 10 10 10 10 10 10 10 9 9 9 9 9 9 10 10 10 9 8 8 8
22 22 20 17 14 13 15 15 15 15 14 12 11 10 10 10 11 12 12 11 10 9 8 7 6 6 6 6 7 8 8 8 7 6 5 5 4 5 4 4 4 4 5 6 7 8 8 8 7 7 8 9 10 10 10 10 10 10 10 10 10 11 11 11 11 11 11 10 10 10 10 11 11 10 10 10 10 11 11 11 10 9 9 9 9
22 21 19 17 15 15 16 17 17 17 16 15 13 11 10 11 11 12 12 12 11 9 8 7 6 6 6 6 6 7 8 8 8 7 6 4 3 4 4 4 4 5 5 6 6 7 7 7 7 7 8 9 10 10 10 11 11 11 11 11 11 11 11 11 11 11 11 10 10 10 10 11 11 11 11 10 11 12 12 11 10 10 10 10 10
22 21 20 18 17 16 17 19 20 20 19 17 16 14 11 11 12 12 12 12 11 10 8 7 6 6 6 6 6 7 8 8 9 8 6 4 3 3 3 3 4 5 5 5 6 6 6 6 6 7 8 9 9 10 10 11 11 11 11 11 11 11 11 11 11 11 10 10 10 10 10 10 10 10 10 11 12 12 12 11 11 11 11 11 11
23 21 20 20 19 18 18 20 22 23 22 20 19 17 14 13 13 13 13 12 12 11 9 8 6 6 6 6 6 7 8 8 9 8 7 4 3 2 3 4 5 5 5 5 5 5 6 6 6 7 8 8 9 9 10 11 11 11 11 11 11 11 11 11 11 10 10 10 10 10 10 9 9 9 10 12 13 13 12 12 12 12 12 11 11
25 23 21 21 21 19 19 20 23 25 24 23 21 18 15 14 14 14 14 13 12 12 10 9 7 6 6 6 6 7 7 8 8 8 6 5 3 2 3 4 5 6 6 5 4 4 5 5 6 7 7 8 8 9 10 10 11 11 11 11 11 11 11 11 10 10 9 9 9 9 9 9 9 10 12 13 13 13 13 12 12 12 11 11 11
27 24 23 22 22 21 20 21 24 27 26 24 22 19 15 13 14 14 14 14 13 12 11 10 8 6 6 6 7 7 7 7 7 7 6 5 4 3 4 5 5 6 6 5 4 4 4 4 5 6 7 7 8 9 9 10 10 10 10 10 11 11 10 10 9 9 8 8 8 8 9 9 10 12 13 13 13 13 12 12 12 12 12 11 11
26 24 23 23 23 22 21 22 24 27 28 26 24 22 20 16 14 14 14 14 14 12 12 10 8 7 6 6 6 7 7 8 7 7 6 6 5 5 5 6 5 5 5 5 4 3 3 4 4 5 6 7 8 8 9 9 10 9 10 10 10 10 10 9 9 9 8 8 8 8 9 10 11 13 14 14 13 13 12 12 12 12 12 12 11
25 24 23 24 23 23 23 24 25 27 29 28 26 24 22 19 16 14 14 14 13 12 12 11 9 7 6 6 6 7 7 8 8 7 7 7 7 7 6 6 6 5 5 4 3 3 3 4 4 5 6 7 7 8 9 9 9 9 9 9 10 9 9 9 9 9 9 9 8 8 9 10 12 14 15 15 14 13 12 12 13 13 13 12 12
24 23 23 24 24 24 25 26 26 28 30 28 27 23 19 19 17 15 15 14 13 12 12 11 9 8 7 6 7 7 7 8 8 8 8 8 8 8 7 7 6 5 4 3 3 2 3 3 4 5 6 6 7 8 8 9 9 9 9 9 9 9 9 9 9 9 9 8 8 8 9 11 12 14 15 15 14 13 12 13 13 14 13 13 12
24 24 24 25 25 24 24 26 27 29 29 26 25 23 19 19 18 17 16 15 13 12 12 11 10 9 8 7 7 7 8 8 9 9 9 9 9 8 8 7 6 5 3 2 2 2 3 3 4 5 6 6 7 8 8 9 9 9 9 9 9 9 9 9 8 8 8 8 8 8 9 11 12 14 15 15 14 13 13 14 14 14 14 13 12
26 25 26 28 26 25 24 26 27 29 28 26 26 25 22 20 18 17 17 15 14 13 12 12 11 11 9 9 9 9 8 8 9 10 10 9 9 8 7 6 5 4 3 2 1 1 2 3 4 4 5 6 7 8 8 9 9 9 9 9 9 9 9 8 8 8 8 8 8 8 9 11 12 14 14 14 14 14 15 15 15 14 14 13 12
27 26 28 28 26 25 25 27 28 30 29 28 28 27 25 22 20 18 17 16 15 14 14 13 13 12 11 10 10 10 9 9 9 9 9 9 8 7 6 5 4 4 3 2 1 1 1 2 3 4 5 5 6 7 8 8 9 9 9 9 9 9 8 8 8 8 8 8 8 9 9 11 12 13 13 13 14 15 15 15 15 15 14 13 13
28 27 27 24 23 24 25 28 30 31 31 31 31 29 26 24 22 20 19 17 15 15 15 14 14 13 12 11 11 11 10 9 9 8 8 8 7 6 5 4 4 3 3 3 2 1 1 1 2 3 4 5 6 7 7 8 8 8 8 8 8 8 8 8 9 9 9 9 8 8 9 11 13 13 13 13 14 15 15 15 16 15 14 13 13
30 29 25 22 22 23 24 28 29 31 32 32 31 29 26 25 24 22 21 18 16 16 16 15 15 14 13 12 12 12 11 10 9 8 8 7 7 6 5 5 4 3 4 4 3 1 1 1 1 2 3 4 5 6 7 7 7 7 7 7 7 7 8 8 9 9 10 10 9 8 9 11 12 13 13 13 14 14 14 15 15 15 14 14 13
34 31 27 24 25 25 25 28 28 30 32 31 31 29 27 26 25 23 21 19 18 17 17 16 15 15 14 13 13 12 11 11 10 9 8 8 7 6 6 5 5 5 5 5 3 2 2 1 0 1 2 4 5 5 6 6 6 5 5 6 6 7 8 9 9 10 10 10 9 9 10 12 12 12 13 13 13 13 13 14 14 14 14 14 14
35 33 30 27 27 28 28 29 29 30 31 32 32 30 29 27 26 24 22 21 20 19 18 17 16 15 15 15 14 12 11 11 11 10 9 9 8 7 7 6 6 6 6 5 4 3 3 2 2 2 3 4 5 5 5 5 4 4 5 5 5 6 7 8 9 10 10 10 10 10 11 12 12 12 13 13 12 12 12 14 14 14 14 14 14
35 35 34 33 31 31 32 30 31 32 32 35 35 32 30 28 27 25 23 22 21 20 19 17 16 15 15 16 15 13 12 11 11 11 10 10 9 8 8 7 7 7 7 6 5 5 4 4 4 4 4 4 5 5 4 4 3 3 3 3 4 5 7 8 9 10 10 11 11 12 11 11 12 12 12 12 11 11 12 13 14 14 15 15 14
38 36 36 36 34 33 34 31 31 33 31 34 37 34 31 28 27 26 24 22 21 20 20 18 17 16 16 16 15 14 12 12 12 11 11 11 10 9 9 8 8 8 7 7 7 6 6 5 6 6 6 5 5 4 3 3 2 2 2 3 4 5 6 7 9 10 10 11 12 12 11 11 11 12 12 12 11 11 11 12 13 14 15 15 15
38 36 36 38 35 32 35 35 33 33 31 31 35 33 31 28 27 27 25 23 21 21 20 19 17 16 16 16 15 14 13 12 12 12 11 11 11 10 9 9 9 9 8 8 8 8 7 7 8 8 8 7 6 4 2 2 2 2 2 3 4 4 5 6 8 10 11 11 12 12 12 11 11 12 12 11 11 11 11 11 12 14 14 15 15
39 38 38 39 37 33 36 37 34 34 32 32 35 34 31 29 27 27 25 23 22 21 21 20 19 18 17 16 15 14 13 13 12 12 12 12 11 11 10 10 10 9 9 9 9 9 9 9 10 10 9 8 7 5 2 1 2 2 2 2 3 4 5 6 8 10 11 12 12 12 12 11 11 11 11 11 11 11 11 12 12 13 14 15 15
44 42 40 40 40 38 37 35 32 33 33 35 37 35 32 30 28 27 25 23 23 23 23 22 21 19 18 17 16 15 14 13 13 13 12 12 12 11 11 10 10 10 10 10 10 10 10 10 11 12 11 9 8 6 3 2 2 2 2 2 3 4 4 6 8 10 11 11 12 12 12 12 11 11 11 11 11 11 11 12 12 13 14 15 15
47 46 43 41 42 41 39 36 33 33 34 37 39 37 34 31 29 28 26 25 24 24 23 23 22 20 19 19 17 16 15 14 13 13 13 12 12 12 12 11 11 11 11 11 10 11 11 11 12 13 12 10 9 7 4 2 2 3 2 2 3 3 4 6 8 10 11 11 12 12 12 12 12 11 10 10 11 11 11 12 12 13 13 14 14
48 49 46 44 44 44 41 39 37 36 36 39 40 38 36 33 31 29 27 26 25 24 24 23 22 21 20 20 19 18 17 16 15 14 14 13 13 13 13 12 12 12 12 12 11 12 12 12 13 14 13 12 9 7 5 4 3 3 3 3 3 4 5 6 8 10 11 11 11 12 12 12 12 12 11 11 11 11 12 12 12 13 13 13 14
45 48 48 46 45 44 41 39 40 39 39 40 41 39 37 36 34 32 29 28 26 25 24 23 22 22 21 21 20 19 18 17 16 15 15 14 14 14 13 13 13 13 13 12 12 12 13 13 14 14 14 12 10 8 6 5 4 3 3 4 3 4 5 6 8 10 11 12 11 12 12 12 12 12 12 12 12 11 12 12 13 13 13 13 13
43 44 47 47 45 45 42 41 41 40 40 41 42 42 39 38 37 34 32 31 29 27 26 24 23 23 22 22 22 21 19 18 18 17 16 16 15 15 15 14 14 14 13 13 13 13 13 14 14 15 14 13 11 9 7 7 6 4 4 4 4 4 5 7 8 9 11 12 12 12 12 12 12 12 12 12 13 12 12 12 13 13 13 13 13
43 42 45 46 45 45 45 44 44 43 41 42 44 43 42 41 39 36 34 33 32 30 28 26 24 24 24 23 23 22 21 20 20 19 18 17 17 17 17 16 15 15 14 14 14 14 15 14 14 15 14 13 12 10 8 8 7 5 4 5 4 4 6 7 8 9 11 12 13 12 12 12 12 12 12 13 13 13 13 13 13 13 13 13 13
44 43 43 46 46 46 47 47 46 45 44 45 47 47 46 46 42 39 36 35 34 32 31 28 26 25 25 24 24 24 23 22 22 21 20 20 20 19 19 18 17 16 16 16 15 15 15 15 15 15 14 14 13 11 10 9 8 7 5 5 5 5 6 7 8 9 10 12 13 13 13 13 13 13 13 13 13 13 13 13 14 14 14 13 13
47 44 42 44 48 48 48 49 47 47 47 48 50 49 46 45 42 40 38 37 35 34 33 31 28 26 26 25 24 24 24 23 23 23 22 22 22 21 21 20 19 18 17 17 17 16 15 15 15 14 14 14 13 12 11 9 8 8 6 5 5 6 7 8 8 8 9 11 12 14 14 13 13 13 13 14 14 13 13 14 14 14 15 14 13
48 46 42 42 47 50 49 49 50 50 51 52 52 50 45 41 38 38 39 38 37 36 35 33 31 29 28 26 24 23 23 23 24 24 24 24 24 24 23 22 21 19 18 18 18 17 16 15 15 14 14 14 14 13 12 11 9 9 8 7 6 7 7 8 8 8 9 10 12 14 14 14 14 14 14 14 14 14 14 15 15 15 15 15 14
50 49 46 42 44 49 51 50 50 51 52 52 52 50 47 43 40 40 39 38 37 37 36 34 32 31 30 28 26 25 24 25 24 26 26 26 26 26 24 23 22 20 19 19 19 17 16 15 15 14 13 13 13 14 13 12 10 10 9 8 8 9 9 8 8 8 9 10 11 13 14 15 15 15 15 15 14 14 15 16 16 16 16 15 15
52 51 50 46 44 47 52 50 49 50 49 51 52 50 47 44 44 44 42 40 39 38 37 35 33 31 30 29 28 27 27 26 26 26 28 28 27 26 25 23 22 21 20 20 19 18 16 15 15 14 13 13 13 13 13 13 12 11 10 10 10 11 10 9 9 9 9 10 11 13 14 15 16 16 16 16 15 15 15 16 17 16 16 16 15
52 53 52 50 47 47 50 49 48 48 45 46 51 51 48 46 46 47 46 45 44 42 39 36 34 32 30 29 29 28 27 27 27 27 29 30 29 27 25 24 23 22 21 20 20 18 17 15 14 14 13 12 12 13 13 13 13 12 11 11 12 13 12 11 10 9 10 11 12 13 14 15 16 17 18 17 17 16 16 17 17 17 17 17 16
52 53 53 53 51 49 48 46 47 49 46 44 46 48 49 49 49 49 48 47 46 44 40 37 35 32 30 30 29 29 28 28 28 28 29 31 30 28 26 25 24 23 22 21 20 19 17 16 14 14 12 12 12 13 13 13 13 12 12 12 13 14 14 13 12 10 11 13 12 13 15 16 16 17 18 18 18 17 18 18 18 17 17 17 17
52 53 53 53 52 52 50 46 45 49 51 47 44 44 46 49 50 51 50 49 47 45 41 38 35 33 31 31 30 30 30 30 29 29 30 31 31 30 28 26 26 24 23 22 21 19 18 17 15 14 13 12 12 12 13 13 13 13 12 13 14 15 15 15 14 12 13 13 13 14 15 16 17 18 19 19 18 18 18 19 19 18 17 17 17
54 54 54 54 53 53 52 48 44 47 51 50 46 44 45 49 51 52 53 51 49 46 42 40 37 35 33 32 32 32 32 32 30 30 30 32 32 31 30 29 28 27 25 23 21 20 19 18 16 14 13 13 12 12 13 13 13 13 13 14 15 15 15 15 15 14 15 14 14 15 16 17 18 19 19 19 18 18 19 20 19 18 18 17 17
55 55 56 55 55 54 53 51 47 48 52 51 48 46 46 50 53 55 55 53 50 47 44 42 40 37 36 35 34 33 34 32 31 31 31 33 33 31 29 29 29 28 26 24 22 21 19 18 16 15 14 14 13 13 13 14 13 13 13 15 16 16 16 16 15 16 16 15 15 16 16 17 18 20 20 19 18 18 19 20 20 19 19 18 17
56 55 56 56 56 56 55 53 50 50 52 51 47 47 49 53 55 57 57 55 51 48 46 44 41 38 38 38 36 35 34 32 31 32 33 34 34 30 27 27 28 28 27 25 23 21 19 17 17 16 16 15 14 13 14 14 13 13 14 15 15 16 16 16 16 16 16 16 16 17 17 18 19 20 21 19 18 19 20 20 20 19 19 19 17
57 56 57 57 57 57 56 55 53 51 51 49 46 48 51 54 57 59 57 55 53 50 48 45 40 38 38 38 37 36 35 34 33 33 34 35 33 30 29 29 29 29 27 25 24 23 20 18 17 17 17 16 15 14 14 14 13 13 13 14 15 16 17 17 17 17 17 17 17 18 19 19 19 20 21 19 19 19 20 20 20 19 19 18 17
59 58 57 57 58 58 57 57 55 54 51 47 46 49 52 54 58 60 58 57 54 50 48 45 40 38 39 39 39 38 36 35 33 32 34 35 32 31 31 30 31 30 27 26 25 24 21 19 18 18 17 16 15 15 14 13 13 13 12 13 15 16 17 17 18 18 18 19 19 19 20 20 20 21 20 19 19 20 20 20 20 19 18 18 17
60 60 59 58 59 59 58 57 57 56 53 48 47 49 51 53 56 60 60 58 55 50 47 44 41 41 41 41 40 38 36 36 34 32 32 33 32 32 31 32 33 30 27 27 26 24 23 20 19 18 18 17 16 15 14 13 13 12 12 12 13 15 16 17 19 19 20 20 20 20 21 21 21 21 21 20 19 20 20 20 20 18 18 17 16
62 61 61 60 60 60 59 58 58 58 55 50 48 48 48 46 47 55 60 58 55 52 50 47 45 44 43 41 40 38 37 36 35 34 33 32 32 31 32 33 32 30 28 27 25 25 24 22 20 19 19 18 17 16 14 13 14 13 12 12 12 14 16 17 19 19 20 21 21 21 21 22 23 22 21 21 20 20 20 20 20 18 17 16 16
63 63 62 61 61 61 60 59 59 59 56 52 51 49 48 44 38 44 53 54 53 52 50 50 49 47 44 42 40 39 39 38 36 36 35 33 32 32 33 32 30 29 28 27 26 25 24 22 21 20 20 19 18 17 15 14 14 14 13 12 13 13 15 17 18 19 20 21 21 21 21 22 24 23 22 22 22 21 21 20 20 18 17 16 16
63 64 64 63 62 62 62 60 59 60 58 55 54 52 53 50 42 41 46 50 52 51 50 50 50 49 46 43 42 42 41 39 37 37 37 35 34 34 33 32 31 29 28 27 26 25 23 22 22 22 21 20 19 18 16 16 15 15 14 13 13 14 15 17 18 19 19 20 21 20 20 22 23 22 22 23 22 22 21 21 20 18 17 17 17
61 65 66 65 64 63 63 62 60 61 60 58 57 56 56 54 48 45 45 47 50 50 51 51 50 51 49 44 44 45 43 41 38 38 38 36 35 34 34 33 32 31 29 28 27 26 24 23 23 23 22 21 20 19 18 17 16 15 14 14 14 15 16 17 18 19 19 19 19 19 19 20 21 22 22 22 23 23 22 23 21 19 18 18 18
Wind_Direction
250 248 245 242 245 247 248 246 246 246 240 246 254 260 268 273 274 272 270 261 244 227 214 196 170 144 131 125 121 113 104 96 93 91 91 91 92 94 93 90 86 82 76 70 65 60 55 48 42 34 27 21 17 13 12 10 6 360 355 350 346 340 331 320 309 302 299 296 293 291 289 287 286 285 281 277 281 291 302 311 320 328 333 333 333
255 252 250 245 245 246 248 248 246 246 241 241 247 253 260 267 270 268 266 259 248 233 216 196 175 152 138 131 127 120 112 105 102 99 98 95 92 94 94 90 84 79 74 69 65 55 45 36 31 27 24 22 18 14 11 8 3 356 350 344 337 329 319 311 304 299 297 296 294 294 292 292 292 291 288 285 288 298 307 316 323 329 332 333 335
258 256 255 251 249 249 247 247 246 244 241 242 246 249 252 260 265 264 261 255 247 235 217 196 178 158 144 137 131 126 120 115 112 110 105 101 96 94 94 91 84 76 70 62 53 44 35 29 26 24 24 24 22 18 14 9 2 356 350 343 336 329 322 316 312 308 306 304 302 300 298 297 296 294 291 291 296 305 313 320 326 330 331 333 336
260 261 261 259 256 253 248 245 244 243 241 245 248 245 247 254 259 260 256 249 244 236 221 200 182 161 148 142 136 131 127 125 122 119 115 109 101 95 93 91 85 71 55 47 43 40 36 31 26 24 25 25 25 22 19 14 7 1 353 346 342 337 331 325 320 316 312 308 304 301 299 297 295 293 290 292 298 306 314 321 326 328 329 333 336
260 263 264 266 263 257 248 242 242 242 242 247 249 245 243 246 251 254 250 242 236 233 224 209 187 165 153 147 140 136 134 134 131 127 127 118 106 98 92 87 77 58 43 41 43 42 38 33 28 25 26 27 27 25 23 18 11 6 359 352 347 345 340 335 330 326 321 314 308 303 300 297 294 292 290 291 297 305 312 319 323 327 330 332 333
256 262 266 269 270 263 250 240 240 242 242 245 243 239 236 238 243 245 242 234 228 225 222 214 195 171 159 151 143 141 142 141 137 136 137 127 110 100 90 79 65 50 41 43 46 45 40 34 29 25 26 29 28 27 26 20 14 9 3 357 353 352 348 344 340 336 331 325 319 313 308 304 300 297 295 295 300 307 313 320 325 328 330 330 331
253 258 263 268 272 267 251 237 235 238 237 235 230 227 229 235 240 239 234 228 221 217 215 212 198 177 163 153 146 145 148 146 143 145 145 135 115 101 88 73 59 52 44 44 46 47 44 38 31 26 27 29 29 27 27 23 17 11 5 1 358 356 352 348 344 340 336 330 325 320 315 311 306 303 302 303 306 312 319 325 328 329 328 326 327
251 254 259 263 268 267 253 237 231 232 229 221 217 219 225 234 238 236 230 225 218 212 209 206 195 177 165 155 150 150 151 151 148 151 152 143 121 102 89 74 62 58 52 48 47 46 45 41 34 27 26 29 30 27 26 25 19 13 8 5 1 357 353 349 345 341 338 333 327 322 318 313 309 306 305 307 312 318 324 327 327 326 322 321 322
252 253 257 258 262 263 253 240 231 228 224 216 210 211 221 233 236 236 230 223 217 209 204 200 191 175 164 155 153 153 153 155 152 154 156 151 131 109 94 82 74 70 63 55 48 46 44 41 36 30 27 29 31 29 26 26 21 14 10 7 3 359 354 350 346 342 338 333 327 322 316 311 308 307 308 312 318 322 325 325 323 320 317 317 316
256 257 258 259 259 260 251 241 234 227 224 221 217 214 217 231 235 238 235 227 218 209 203 199 191 178 165 156 153 154 156 157 157 157 159 161 147 121 102 92 89 85 76 64 52 45 42 38 34 33 31 29 31 32 29 26 22 16 11 9 4 358 354 350 346 343 338 333 328 322 316 310 308 310 314 318 320 322 323 321 318 316 315 315 313
258 260 261 261 260 257 249 238 235 231 229 227 223 220 221 231 235 239 241 234 225 215 207 203 197 186 173 165 158 157 160 161 161 161 163 169 168 145 116 104 102 98 90 74 58 46 39 35 31 33 37 35 34 34 31 27 23 18 13 8 3 357 352 350 346 343 338 334 328 322 319 316 316 317 318 320 321 322 322 319 316 315 314 313 312
257 259 262 263 260 256 247 237 233 232 234 231 225 220 222 232 234 237 242 239 231 222 215 209 203 194 183 178 174 170 170 171 170 168 169 175 179 164 130 115 112 108 99 86 67 49 40 36 32 33 39 40 39 36 33 29 24 20 14 7 1 355 351 349 345 342 338 334 328 323 322 322 323 323 324 325 325 325 323 320 317 315 314 312 311
255 257 259 261 259 254 248 239 231 231 234 231 226 221 216 226 232 234 240 240 234 226 218 213 208 201 193 188 187 186 187 188 187 182 179 180 180 168 138 123 118 113 103 93 74 47 37 39 39 39 41 43 43 39 35 30 25 21 14 6 360 353 349 347 343 340 337 333 328 325 325 325 328 330 331 331 330 328 324 321 317 315 314 312 311
252 253 255 257 256 253 249 241 232 230 231 228 226 224 218 220 228 231 237 238 234 227 217 211 210 206 200 194 191 192 194 197 199 192 185 180 172 163 143 129 121 113 104 92 73 41 25 37 46 50 50 48 45 42 38 32 27 22 14 6 358 352 346 345 343 341 338 332 328 326 327 328 331 334 336 335 333 330 325 322 318 316 315 313 312
250 250 251 253 254 251 246 241 232 228 229 226 224 223 220 221 224 227 230 232 228 222 214 207 205 203 200 195 191 191 192 193 194 188 180 175 166 158 144 133 125 113 103 88 69 33 14 30 48 55 55 52 47 42 38 33 28 23 15 5 357 349 344 345 344 343 340 335 331 329 329 330 333 337 337 335 332 329 325 322 320 318 316 316 315
247 251 252 252 251 248 244 238 230 225 225 225 221 214 212 217 219 220 220 221 219 215 210 203 197 196 195 189 185 184 185 184 180 176 171 167 161 154 144 135 128 116 104 89 67 31 13 26 46 53 54 50 45 40 34 28 26 22 13 3 356 349 345 346 346 346 344 340 336 332 331 332 335 337 336 333 330 328 325 324 322 320 319 318 316
245 251 255 253 247 244 242 236 226 220 218 216 214 205 202 209 212 212 212 213 211 209 205 198 191 188 186 179 175 173 175 174 167 164 163 162 159 151 144 138 131 121 110 98 75 39 22 30 44 48 48 45 41 36 28 22 21 18 11 2 355 351 348 348 347 346 346 344 338 332 331 334 336 336 334 331 330 328 326 326 326 324 322 320 317
245 250 255 251 245 240 235 230 220 212 208 206 209 207 204 206 208 208 208 209 207 205 201 195 188 183 181 177 173 168 167 167 161 158 159 161 160 153 146 142 136 129 124 120 106 62 39 40 45 42 41 39 36 31 21 16 16 14 8 2 356 352 350 348 346 345 346 343 337 331 330 333 336 335 333 331 330 328 327 327 328 328 325 322 318
243 248 252 245 239 236 229 223 214 206 202 203 210 212 210 207 207 208 208 209 206 204 201 195 190 184 181 182 179 174 169 166 160 156 159 163 163 159 153 151 147 141 142 150 142 108 61 47 50 41 36 34 29 22 14 11 13 11 6 2 357 353 350 347 346 343 342 341 336 331 330 333 335 335 333 330 330 329 328 328 330 331 327 323 318
243 246 250 245 238 234 226 218 211 204 201 204 211 214 215 212 209 209 209 209 207 205 203 197 192 188 188 189 189 185 181 175 168 162 162 168 170 170 169 167 168 163 163 167 161 138 84 53 57 45 34 27 21 14 7 7 9 10 7 3 358 354 351 347 345 341 338 338 336 332 331 334 334 334 333 330 329 330 329 330 331 331 328 323 318
243 244 247 249 245 237 225 216 212 208 205 208 212 216 217 216 213 209 208 208 207 206 204 200 195 193 194 197 199 197 194 190 183 176 175 180 182 187 191 191 192 191 186 179 177 168 158 90 67 43 25 14 8 5 0 3 7 10 9 5 359 355 352 349 344 338 335 333 334 333 330 332 333 333 332 331 330 330 330 331 331 331 328 324 319
241 243 244 244 244 240 228 219 216 211 209 212 215 218 219 217 214 210 207 204 205 206 204 203 200 197 200 204 206 206 205 202 197 191 189 192 194 199 207 209 208 208 203 194 196 203 195 182 88 355 359 356 354 355 355 359 6 10 11 7 360 355 352 348 342 337 333 330 329 329 329 330 332 332 331 331 330 329 329 330 332 330 327 324 319
239 240 242 240 239 239 232 223 219 214 212 215 217 221 220 216 212 208 205 202 201 203 204 204 203 202 205 209 211 213 214 212 208 201 197 200 201 204 213 219 217 214 214 209 213 216 209 217 256 293 322 337 339 344 349 354 4 10 17 14 357 352 350 345 339 335 331 328 324 325 327 329 331 332 331 330 329 329 329 330 331 330 328 324 318
237 237 238 239 239 240 236 227 223 222 220 217 218 219 216 213 211 207 204 201 199 200 202 203 203 204 207 212 215 216 217 218 216 209 204 204 206 206 212 220 221 217 220 221 223 223 223 237 263 280 299 317 324 334 345 349 356 8 22 18 350 346 348 342 335 331 328 325 323 323 324 328 331 331 330 330 329 329 330 330 329 328 328 325 319
235 236 237 239 241 241 237 232 225 227 229 221 215 212 209 209 209 207 203 199 198 199 201 202 202 204 208 213 216 217 218 220 220 215 210 208 209 208 210 217 221 219 222 227 227 230 237 252 268 278 289 302 310 321 334 339 342 358 11 6 344 342 343 339 333 327 325 324 322 321 323 328 332 332 331 330 329 329 330 329 327 327 327 325 321
235 234 235 237 241 240 234 231 224 225 233 224 211 205 204 206 207 206 202 198 197 200 202 202 202 204 208 212 215 217 217 219 220 217 213 210 211 210 209 213 218 220 224 229 232 238 247 261 272 279 286 294 300 308 318 320 314 329 349 349 340 339 339 337 330 324 323 323 322 321 322 327 332 333 333 332 330 328 328 328 327 327 328 327 323
233 231 232 234 238 238 233 230 220 219 229 223 210 204 202 204 206 206 202 200 199 200 203 202 201 203 206 210 213 215 216 217 219 218 215 212 212 211 210 211 215 219 223 228 235 245 255 266 274 280 286 292 297 298 292 275 284 300 323 336 334 331 332 331 325 321 321 323 323 322 322 325 331 335 334 333 330 327 326 326 327 329 330 328 325
230 229 228 231 234 235 236 233 221 219 226 219 209 204 202 203 204 204 201 201 202 203 203 202 201 202 204 208 210 212 215 217 218 218 216 214 213 213 212 211 214 218 221 227 238 250 260 268 275 280 285 290 296 294 281 255 265 282 296 319 328 321 322 323 320 318 320 323 323 322 322 325 331 335 335 333 330 327 325 325 327 331 331 328 325
230 228 225 227 231 233 235 237 229 223 223 215 208 204 200 201 203 202 201 202 205 207 206 203 202 202 203 207 210 212 215 217 219 218 217 215 214 214 213 211 212 216 220 227 239 251 261 269 275 280 285 288 291 287 278 258 254 267 284 302 312 309 311 314 314 315 317 321 322 321 322 326 331 334 336 335 330 326 324 325 327 330 330 327 324
233 231 226 224 229 232 233 235 231 224 220 213 210 208 203 200 201 200 201 204 207 210 209 207 203 202 203 206 209 212 216 218 220 220 218 215 214 214 214 212 211 213 220 229 239 251 261 268 273 278 283 285 286 281 274 263 253 258 274 287 295 297 300 305 309 312 315 318 321 319 321 326 331 334 337 337 333 328 325 325 327 329 328 325 323
234 235 230 226 227 231 231 234 232 223 219 214 208 210 209 204 202 200 201 205 209 211 213 212 206 204 205 207 209 211 215 219 221 222 221 216 213 214 215 214 212 213 221 231 242 251 259 266 271 276 281 283 281 277 272 266 261 256 264 276 285 290 293 300 306 310 312 315 318 318 320 325 330 334 335 336 334 330 327 325 326 327 326 324 322
232 235 233 229 229 230 229 231 231 224 221 215 207 208 210 209 204 200 200 204 208 209 213 216 211 207 208 208 210 211 215 219 221 222 222 218 213 211 213 214 216 218 224 234 244 252 257 263 268 274 279 280 277 274 271 268 266 259 259 270 277 285 290 296 303 307 309 312 316 317 319 322 328 332 333 334 333 331 328 325 324 325 324 323 322
231 234 231 227 228 231 229 228 229 227 222 215 207 206 210 211 207 201 201 204 207 208 212 217 214 210 209 210 212 213 216 220 221 221 222 220 215 212 213 214 218 222 228 236 245 252 257 262 266 273 278 278 275 273 270 268 270 267 262 268 276 281 287 292 298 303 306 310 313 315 317 320 325 328 330 331 331 331 328 324 323 323 323 322 321
232 234 231 226 227 231 231 230 231 229 222 213 209 207 208 209 206 201 202 205 207 209 211 215 215 212 210 211 213 216 220 222 221 220 220 221 218 216 216 216 218 223 230 237 244 251 256 261 265 272 277 276 274 272 270 268 270 274 269 268 274 279 283 288 293 298 304 308 310 311 314 318 320 323 326 328 330 331 327 322 321 322 322 321 321
232 234 233 229 228 231 232 231 232 231 222 215 212 210 207 206 204 201 202 206 208 210 212 213 214 214 212 212 214 217 221 224 222 219 219 220 220 219 218 217 218 223 231 237 242 248 253 259 264 271 275 275 273 272 272 271 273 278 278 273 271 274 278 283 289 296 302 306 308 309 312 314 316 318 322 325 328 329 326 321 319 320 322 322 321
230 233 232 230 230 232 233 231 232 230 224 217 215 211 207 207 209 207 205 207 209 211 213 212 212 213 213 213 216 221 224 226 223 220 218 219 220 219 219 220 220 223 230 236 241 245 250 256 262 268 272 273 273 273 273 274 277 281 284 282 276 275 278 281 286 294 299 303 305 307 310 312 312 315 319 323 326 327 325 320 318 320 321 321 320
228 230 229 227 230 232 233 233 232 233 229 222 217 210 207 210 216 216 211 209 211 214 216 213 212 213 212 212 216 221 227 229 226 222 217 217 219 219 220 222 221 223 229 235 239 242 247 253 260 265 268 271 272 272 273 274 278 282 286 287 284 283 283 285 288 292 296 299 302 305 308 310 310 312 316 321 324 324 321 318 317 319 320 320 317
226 229 228 225 227 231 232 233 233 237 235 224 216 211 209 213 217 216 213 211 213 216 217 216 215 213 212 212 214 219 225 229 228 224 219 216 219 220 220 221 221 223 228 234 237 239 243 249 256 261 265 270 272 271 271 273 276 279 283 287 289 289 290 291 292 295 296 297 302 306 307 308 309 312 315 319 322 321 317 314 315 317 319 318 315
226 228 229 226 226 230 232 232 233 238 239 228 218 213 211 213 218 218 215 213 214 216 217 217 217 215 213 212 213 217 222 226 228 226 221 218 220 220 219 220 221 223 227 232 235 237 240 245 252 258 262 268 271 271 270 271 275 278 282 286 288 290 293 293 294 298 297 297 304 308 307 308 309 311 314 317 319 318 314 312 314 316 318 317 313
226 228 229 227 225 228 231 233 233 235 236 233 227 221 215 214 218 222 218 214 215 216 217 217 217 216 215 213 213 216 220 223 226 227 222 218 219 219 218 219 220 221 225 230 234 236 238 242 248 253 257 264 270 271 271 272 274 279 283 286 286 287 291 292 296 300 297 299 308 309 307 309 311 310 312 315 316 315 313 311 313 315 315 314 312
225 227 229 228 226 227 229 231 233 234 234 234 234 231 226 222 223 224 219 216 216 217 217 218 218 217 217 217 215 216 219 222 225 227 224 219 218 218 217 218 218 219 223 227 231 234 236 239 244 249 253 259 267 271 272 272 274 278 282 284 285 287 290 294 298 300 298 303 309 310 309 311 312 310 311 313 313 311 310 310 311 312 312 312 310
225 226 228 228 227 227 228 228 230 233 234 233 233 233 234 233 230 226 220 218 217 217 217 217 217 217 219 220 219 219 219 220 223 227 226 223 222 221 219 218 217 217 219 224 228 232 235 238 241 246 250 254 261 267 269 269 273 277 281 282 284 288 292 295 299 299 300 305 308 308 310 312 313 311 311 311 311 309 308 307 308 311 312 312 311
227 226 227 228 228 227 228 228 228 230 232 232 231 232 234 236 234 230 225 221 218 217 217 217 216 215 218 222 222 221 221 221 222 225 226 225 226 228 227 224 220 218 218 221 225 230 234 236 239 242 246 250 254 260 264 266 271 276 278 280 283 288 291 294 297 298 301 304 305 306 308 311 313 312 311 311 309 306 305 304 307 310 313 314 313
230 228 228 228 228 227 227 228 228 229 230 230 231 232 232 233 233 232 229 224 219 217 218 219 217 216 219 222 223 224 225 225 224 224 224 225 227 229 231 230 224 220 220 221 224 228 232 234 237 240 242 246 250 255 260 264 269 273 275 279 283 286 288 291 293 295 299 301 302 304 305 308 313 313 312 310 308 304 302 303 305 310 313 315 314
231 229 228 229 229 228 227 228 228 230 231 231 234 235 232 232 233 232 230 225 220 219 219 219 219 220 223 226 227 227 227 226 227 226 223 225 226 225 226 228 224 221 221 221 224 227 229 231 234 237 241 244 247 250 256 261 266 269 273 278 281 283 286 288 290 293 297 300 301 303 303 307 311 312 311 309 305 302 300 301 303 308 313 315 314
230 230 229 229 230 229 228 228 229 230 231 232 236 237 235 233 233 232 230 225 221 220 221 219 219 221 225 229 230 229 226 225 228 228 223 222 223 222 224 224 221 219 220 221 224 226 228 229 231 235 239 242 244 247 253 259 262 265 271 277 279 283 287 289 291 295 298 299 302 303 303 306 309 310 310 307 303 300 298 299 302 307 312 313 311
228 230 229 229 230 230 229 227 228 229 229 230 231 234 232 230 232 231 227 223 220 220 222 220 219 222 225 229 231 230 224 223 228 227 221 219 218 219 221 221 218 216 217 221 224 227 228 229 230 234 237 240 242 244 250 257 261 264 268 275 279 284 287 290 294 297 298 299 301 303 304 306 308 309 308 305 300 297 296 298 301 306 309 311 309
226 228 229 229 229 230 229 227 227 228 228 228 225 225 226 227 232 230 224 222 220 219 221 221 219 221 225 228 230 228 222 222 226 224 217 214 213 214 217 219 218 216 219 222 225 228 229 228 229 232 236 239 241 242 247 255 259 264 268 273 280 285 288 292 295 297 298 298 300 302 303 305 306 307 307 303 299 296 295 297 299 301 305 307 305
226 226 228 228 228 229 229 227 227 227 227 227 222 221 224 229 230 223 218 218 219 220 223 222 219 220 224 227 227 225 221 221 224 223 218 213 211 213 215 217 217 218 221 223 226 229 229 228 229 232 235 238 241 241 245 252 257 262 267 271 277 284 290 294 296 298 298 298 300 301 300 302 303 304 305 302 299 296 294 295 295 298 301 303 302
227 226 226 227 227 228 229 227 226 226 226 225 223 224 229 230 225 218 217 219 220 223 224 222 220 220 223 225 225 224 221 221 223 224 221 218 215 216 217 217 217 218 221 224 227 230 230 230 230 231 234 238 241 242 244 250 256 261 266 271 277 282 288 293 297 299 299 298 299 300 298 299 301 301 303 302 300 297 294 293 293 295 298 298 299
228 226 225 226 226 226 227 227 226 226 225 224 224 227 232 231 225 221 222 224 225 226 225 222 220 221 222 223 225 224 221 221 223 225 225 222 219 219 220 221 221 221 223 226 229 231 232 233 233 232 234 238 240 241 245 249 254 260 266 270 276 281 285 291 297 298 298 297 298 298 296 298 300 300 301 301 300 298 294 293 295 296 296 295 297
Height
5881 5882 5882 5882 5883 5883 5884 5884 5884 5884 5884 5884 5884 5884 5884 5884 5884 5884 5884 5884 5884 5883 5882 5882 5881 5881 5880 5880 5880 5880 5880 5880 5880 5880 5880 5880 5880 5880 5881 5881 5881 5881 5881 5881 5881 5881 5881 5881 5881 5881 5880 5880 5880 5879 5879 5879 5878 5878 5877 5877 5877 5876 5876 5876 5876 5875 5875 5874 5874 5873 5873 5872 5871 5871 5870 5870 5869 5869 5868 5868 5867 5866 5866 5866 5865
5880 5881 5881 5881 5882 5882 5882 5883 5883 5883 5884 5884 5884 5884 5884 5884 5884 5884 5884 5883 5883 5882 5882 5881 5881 5880 5880 5880 5880 5880 5880 5880 5880 5880 5880 5880 5880 5881 5881 5881 5881 5881 5881 5881 5881 5881 5881 5881 5881 5880 5880 5880 5880 5879 5879 5879 5878 5878 5877 5877 5877 5876 5876 5876 5875 5875 5875 5874 5874 5873 5872 5872 5871 5871 5870 5870 5869 5869 5868 5867 5867 5866 5866 5865 5865
5879 5880 5880 5880 5880 5880 5881 5881 5882 5882 5883 5883 5883 5883 5883 5884 5884 5884 5884 5883 5883 5882 5881 5880 5880 5880 5880 5879 5879 5879 5879 5879 5879 5880 5880 5880 5880 5881 5881 5881 5881 5881 5881 5881 5881 5881 5881 5881 5880 5880 5880 5880 5880 5879 5879 5879 5878 5878 5877 5877 5876 5876 5875 5875 5875 5874 5874 5873 5873 5872 5872 5871 5871 5870 5870 5869 5869 5868 5868 5867 5867 5866 5866 5865 5864
5878 5879 5879 5879 5879 5879 5879 5880 5881 5881 5882 5882 5883 5883 5883 5883 5884 5884 5883 5883 5882 5882 5881 5880 5880 5879 5879 5879 5879 5879 5879 5879 5879 5879 5880 5880 5880 5881 5881 5881 5881 5881 5881 5881 5881 5881 5880 5880 5880 5880 5880 5880 5879 5879 5879 5879 5878 5877 5877 5876 5876 5875 5875 5874 5874 5874 5873 5873 5872 5872 5871 5871 5870 5870 5869 5869 5869 5868 5868 5867 5866 5866 5865 5865 5864
5877 5878 5878 5878 5878 5878 5878 5879 5879 5880 5881 5881 5882 5882 5882 5883 5883 5884 5883 5883 5882 5882 5881 5880 5879 5879 5879 5878 5878 5878 5878 5879 5879 5879 5879 5880 5880 5881 5881 5881 5881 5881 5881 5881 5880 5880 5880 5880 5880 5880 5880 5879 5879 5879 5879 5878 5878 5877 5877 5876 5875 5875 5874 5874 5873 5873 5873 5872 5872 5871 5871 5870 5870 5870 5869 5869 5868 5868 5867 5867 5866 5865 5865 5864 5863
5876 5877 5877 5877 5877 5877 5877 5877 5878 5878 5879 5880 5881 5882 5882 5882 5883 5883 5883 5882 5882 5881 5880 5880 5879 5879 5878 5878 5878 5878 5878 5878 5878 5878 5879 5880 5880 5880 5881 5881 5881 5881 5881 5880 5880 5880 5880 5880 5880 5880 5879 5879 5879 5879 5878 5878 5877 5877 5876 5876 5875 5874 5874 5873 5873 5872 5872 5871 5871 5871 5870 5870 5870 5869 5869 5869 5868 5868 5867 5867 5866 5865 5864 5863 5863
5875 5875 5876 5876 5876 5876 5876 5876 5876 5877 5878 5879 5880 5881 5881 5881 5882 5882 5882 5882 5881 5880 5880 5879 5879 5879 5878 5878 5877 5877 5877 5877 5877 5878 5879 5879 5880 5880 5881 5881 5881 5881 5880 5880 5880 5880 5880 5880 5880 5879 5879 5879 5878 5878 5878 5877 5877 5877 5876 5875 5875 5874 5874 5873 5872 5872 5871 5871 5870 5870 5869 5869 5869 5869 5868 5868 5868 5868 5867 5866 5865 5865 5864 5863 5862
5873 5874 5874 5875 5875 5875 5875 5875 5875 5876 5876 5877 5878 5879 5880 5881 5881 5882 5882 5881 5880 5879 5879 5879 5878 5878 5878 5877 5877 5877 5877 5877 5877 5877 5878 5879 5879 5880 5880 5881 5881 5881 5880 5880 5880 5880 5880 5880 5880 5879 5879 5878 5878 5878 5877 5877 5877 5876 5876 5875 5874 5874 5873 5873 5872 5871 5871 5870 5870 5869 5869 5868 5868 5868 5868 5868 5868 5867 5867 5866 5865 5864 5863 5863 5862
5872 5872 5873 5874 5874 5874 5874 5874 5874 5874 5875 5875 5876 5878 5879 5879 5880 5881 5881 5880 5880 5879 5878 5878 5878 5878 5878 5877 5877 5877 5876 5876 5877 5877 5877 5878 5879 5879 5880 5880 5880 5880 5880 5880 5880 5880 5880 5880 5880 5879 5878 5878 5878 5877 5877 5876 5876 5876 5875 5875 5874 5873 5873 5872 5872 5871 5870 5869 5869 5869 5869 5868 5868 5868 5868 5868 5867 5867 5866 5866 5865 5864 5863 5863 5862
5870 5871 5872 5872 5873 5873 5873 5873 5873 5873 5874 5874 5875 5876 5877 5878 5879 5880 5880 5880 5879 5878 5878 5877 5877 5877 5877 5877 5877 5877 5876 5876 5876 5876 5877 5877 5878 5879 5879 5880 5880 5880 5880 5880 5880 5880 5880 5880 5879 5879 5878 5878 5877 5877 5877 5876 5876 5875 5875 5874 5874 5873 5872 5872 5871 5870 5870 5869 5869 5868 5868 5868 5868 5868 5868 5868 5867 5867 5866 5865 5865 5864 5863 5862 5862
5868 5869 5870 5870 5871 5871 5871 5871 5872 5872 5872 5873 5873 5874 5876 5877 5878 5879 5879 5879 5878 5878 5877 5877 5877 5877 5877 5877 5877 5877 5876 5876 5876 5876 5876 5877 5877 5878 5878 5879 5879 5879 5879 5879 5880 5880 5880 5880 5879 5879 5878 5878 5877 5877 5876 5875 5875 5875 5874 5874 5873 5873 5872 5871 5871 5870 5869 5869 5868 5868 5868 5868 5868 5868 5868 5868 5867 5867 5866 5865 5864 5864 5863 5862 5861
5866 5867 5868 5869 5869 5869 5869 5870 5870 5871 5871 5871 5872 5873 5874 5876 5877 5877 5878 5878 5878 5877 5876 5876 5876 5876 5877 5877 5877 5877 5876 5876 5876 5876 5876 5876 5877 5877 5878 5878 5878 5878 5878 5879 5879 5880 5880 5879 5879 5878 5878 5877 5877 5876 5876 5875 5875 5874 5874 5873 5873 5872 5872 5871 5870 5870 5869 5869 5868 5868 5868 5868 5869 5869 5869 5868 5867 5867 5866 5865 5864 5863 5862 5861 5860
5864 5866 5866 5867 5867 5867 5868 5868 5868 5869 5869 5869 5870 5871 5873 5875 5876 5876 5877 5877 5877 5876 5876 5876 5876 5876 5876 5876 5877 5877 5876 5876 5876 5876 5875 5875 5876 5876 5877 5877 5878 5878 5878 5878 5878 5879 5879 5879 5879 5878 5877 5877 5876 5876 5875 5875 5875 5874 5874 5873 5873 5872 5871 5871 5870 5870 5869 5869 5869 5868 5869 5869 5869 5869 5869 5868 5867 5866 5865 5864 5863 5862 5862 5861 5860
5862 5863 5864 5865 5865 5865 5866 5866 5866 5867 5867 5867 5868 5869 5870 5873 5874 5875 5875 5876 5876 5876 5875 5875 5875 5876 5876 5876 5876 5876 5876 5876 5876 5876 5875 5875 5875 5876 5876 5876 5877 5877 5877 5877 5877 5878 5879 5879 5878 5878 5877 5876 5876 5876 5875 5875 5874 5874 5873 5873 5873 5872 5871 5871 5870 5870 5869 5869 5868 5868 5869 5869 5869 5868 5868 5867 5867 5866 5865 5864 5863 5862 5861 5860 5860
5860 5861 5862 5863 5863 5863 5864 5864 5864 5865 5866 5866 5866 5866 5868 5870 5872 5873 5874 5874 5875 5875 5874 5874 5874 5875 5875 5875 5875 5875 5875 5875 5875 5875 5875 5875 5875 5875 5876 5875 5876 5876 5876 5876 5876 5877 5877 5878 5878 5877 5877 5876 5876 5875 5875 5875 5874 5874 5873 5873 5872 5872 5871 5870 5870 5870 5869 5869 5868 5868 5868 5868 5868 5868 5867 5867 5866 5865 5864 5863 5863 5862 5861 5860 5859
5858 5859 5860 5860 5861 5861 5861 5861 5862 5863 5864 5864 5864 5864 5866 5868 5870 5871 5872 5873 5873 5873 5873 5873 5873 5874 5874 5874 5874 5875 5875 5875 5875 5875 5875 5874 5874 5875 5875 5875 5875 5875 5875 5875 5875 5876 5876 5877 5877 5876 5876 5875 5875 5875 5874 5874 5874 5873 5873 5872 5872 5872 5871 5870 5870 5869 5869 5868 5868 5868 5868 5868 5868 5867 5867 5866 5865 5864 5864 5863 5862 5861 5860 5860 5859
5856 5857 5858 5858 5859 5859 5859 5859 5859 5860 5861 5863 5863 5863 5864 5866 5867 5868 5869 5870 5871 5872 5872 5872 5872 5873 5873 5873 5873 5874 5874 5874 5875 5875 5874 5874 5874 5874 5874 5874 5874 5875 5875 5875 5875 5875 5875 5876 5876 5876 5875 5875 5874 5874 5874 5874 5873 5873 5872 5872 5872 5871 5871 5870 5870 5869 5869 5868 5868 5867 5867 5867 5867 5867 5866 5865 5864 5864 5863 5863 5862 5861 5860 5859 5858
5854 5854 5855 5856 5857 5857 5856 5856 5857 5858 5859 5861 5861 5861 5862 5864 5865 5865 5867 5868 5869 5870 5870 5871 5871 5872 5872 5873 5872 5873 5873 5874 5874 5874 5874 5874 5873 5874 5874 5874 5874 5874 5874 5874 5874 5874 5875 5875 5875 5875 5875 5874 5874 5873 5873 5873 5872 5872 5871 5871 5871 5871 5871 5870 5870 5869 5868 5868 5867 5867 5867 5867 5866 5866 5865 5865 5864 5863 5863 5862 5861 5861 5859 5859 5858
5851 5852 5853 5854 5854 5855 5854 5854 5855 5855 5856 5858 5859 5860 5861 5862 5863 5864 5865 5865 5866 5868 5869 5870 5870 5871 5871 5872 5872 5872 5873 5873 5874 5874 5873 5873 5873 5873 5873 5873 5874 5874 5874 5874 5874 5874 5874 5875 5875 5875 5874 5874 5873 5873 5873 5872 5872 5871 5871 5871 5871 5871 5871 5870 5870 5869 5868 5868 5867 5866 5866 5866 5866 5865 5865 5864 5863 5863 5862 5861 5861 5860 5859 5858 5857
5849 5850 5851 5852 5853 5853 5852 5852 5853 5853 5854 5855 5857 5858 5859 5860 5861 5862 5863 5863 5864 5866 5867 5869 5869 5870 5870 5871 5871 5871 5872 5873 5873 5873 5873 5872 5872 5872 5873 5873 5873 5873 5873 5873 5873 5873 5874 5874 5874 5874 5874 5874 5873 5873 5872 5872 5871 5871 5871 5870 5871 5871 5871 5870 5870 5869 5868 5867 5867 5866 5866 5865 5865 5864 5864 5863 5863 5862 5861 5861 5860 5859 5858 5857 5856
5848 5848 5849 5850 5851 5851 5851 5850 5851 5852 5852 5854 5855 5857 5858 5859 5860 5861 5861 5861 5862 5864 5866 5867 5868 5868 5869 5870 5870 5870 5871 5872 5873 5873 5872 5872 5872 5872 5872 5872 5872 5873 5873 5873 5873 5873 5873 5874 5874 5874 5874 5873 5873 5872 5872 5871 5871 5871 5870 5870 5870 5870 5870 5870 5869 5869 5868 5867 5866 5865 5865 5864 5864 5863 5863 5862 5862 5861 5861 5860 5859 5858 5857 5857 5856
5845 5846 5847 5848 5849 5850 5849 5849 5850 5850 5851 5853 5854 5856 5857 5858 5859 5859 5860 5860 5861 5862 5864 5865 5866 5867 5867 5868 5869 5869 5870 5871 5872 5872 5871 5871 5871 5871 5871 5872 5872 5872 5872 5872 5872 5872 5873 5873 5874 5874 5874 5873 5872 5872 5871 5871 5871 5870 5870 5870 5870 5870 5870 5869 5869 5868 5868 5867 5866 5865 5864 5863 5863 5862 5862 5862 5861 5861 5860 5860 5859 5858 5857 5856 5855
5842 5844 5845 5846 5847 5848 5847 5847 5848 5848 5849 5851 5852 5854 5855 5856 5857 5858 5859 5859 5860 5861 5862 5863 5865 5865 5866 5867 5867 5868 5869 5870 5871 5871 5870 5870 5870 5870 5871 5871 5871 5872 5872 5872 5872 5872 5872 5873 5873 5873 5873 5873 5872 5871 5871 5870 5870 5870 5870 5869 5869 5869 5869 5869 5868 5868 5867 5866 5865 5864 5863 5863 5862 5862 5861 5861 5860 5860 5859 5858 5858 5857 5856 5855 5854
5839 5840 5842 5843 5844 5845 5845 5845 5845 5846 5847 5847 5849 5851 5852 5854 5855 5856 5857 5858 5859 5860 5860 5862 5863 5864 5865 5866 5866 5867 5868 5869 5870 5870 5869 5869 5869 5869 5870 5870 5871 5871 5871 5871 5871 5871 5871 5872 5872 5872 5873 5872 5872 5871 5870 5870 5870 5869 5869 5869 5869 5869 5868 5868 5867 5867 5866 5865 5864 5863 5863 5862 5861 5861 5860 5860 5859 5859 5858 5857 5857 5856 5855 5854 5853
5835 5837 5839 5840 5841 5842 5843 5843 5843 5843 5844 5844 5845 5847 5849 5851 5853 5854 5855 5856 5857 5858 5859 5860 5861 5862 5863 5864 5865 5865 5866 5867 5869 5869 5868 5868 5868 5868 5869 5869 5870 5870 5870 5870 5870 5871 5871 5871 5871 5872 5872 5872 5871 5870 5869 5869 5869 5869 5868 5868 5868 5868 5867 5867 5866 5866 5865 5864 5864 5863 5862 5861 5860 5860 5859 5859 5858 5858 5857 5856 5856 5855 5854 5853 5852
5832 5834 5836 5837 5838 5839 5840 5840 5840 5840 5841 5841 5843 5845 5847 5849 5851 5852 5853 5854 5855 5856 5857 5858 5859 5860 5862 5863 5863 5864 5865 5866 5867 5868 5867 5867 5867 5867 5868 5868 5869 5869 5870 5870 5870 5870 5870 5870 5870 5871 5871 5871 5870 5870 5868 5868 5868 5868 5867 5867 5867 5867 5866 5866 5865 5865 5864 5863 5863 5862 5861 5860 5859 5859 5858 5858 5857 5856 5856 5855 5854 5854 5853 5852 5851
5827 5829 5831 5833 5834 5836 5836 5835 5836 5837 5838 5840 5842 5843 5844 5846 5848 5850 5851 5852 5853 5854 5855 5856 5857 5859 5860 5861 5862 5862 5863 5865 5866 5866 5866 5866 5866 5866 5867 5867 5868 5868 5869 5869 5869 5869 5869 5869 5870 5870 5870 5870 5869 5869 5868 5867 5867 5867 5867 5866 5866 5866 5865 5865 5864 5864 5863 5863 5862 5861 5860 5859 5858 5858 5857 5857 5856 5855 5855 5854 5853 5852 5851 5851 5850
5821 5823 5826 5829 5830 5831 5832 5832 5833 5834 5836 5838 5839 5840 5842 5844 5846 5848 5849 5850 5851 5852 5853 5854 5855 5857 5858 5860 5860 5861 5862 5863 5864 5865 5865 5865 5865 5865 5866 5866 5867 5867 5868 5868 5868 5868 5869 5869 5869 5869 5869 5869 5868 5867 5867 5866 5867 5866 5866 5865 5865 5865 5864 5864 5863 5863 5862 5862 5861 5860 5859 5858 5858 5857 5856 5855 5855 5854 5854 5853 5852 5851 5850 5849 5848
5816 5817 5821 5824 5825 5827 5829 5830 5830 5831 5833 5835 5836 5838 5838 5841 5844 5845 5846 5848 5849 5850 5851 5852 5853 5854 5856 5857 5859 5859 5861 5862 5863 5863 5864 5864 5864 5864 5865 5866 5866 5866 5867 5867 5867 5867 5867 5868 5868 5868 5868 5868 5867 5867 5866 5866 5866 5866 5865 5865 5864 5864 5863 5863 5862 5861 5861 5861 5860 5859 5858 5857 5856 5856 5855 5855 5854 5853 5852 5852 5851 5850 5849 5848 5847
5813 5814 5817 5819 5821 5823 5825 5827 5828 5828 5828 5831 5834 5836 5836 5838 5841 5843 5844 5845 5847 5848 5849 5850 5851 5852 5853 5855 5856 5858 5859 5861 5862 5862 5862 5862 5863 5863 5864 5865 5865 5866 5866 5866 5866 5866 5866 5866 5867 5867 5867 5867 5866 5866 5865 5864 5865 5865 5864 5864 5863 5863 5862 5862 5861 5860 5860 5860 5859 5858 5857 5856 5855 5855 5854 5853 5853 5852 5851 5850 5849 5848 5847 5846 5846
5809 5812 5815 5816 5817 5819 5822 5824 5826 5825 5825 5827 5831 5834 5835 5836 5838 5839 5840 5842 5845 5846 5848 5849 5849 5850 5851 5852 5854 5856 5858 5859 5860 5861 5861 5861 5862 5862 5863 5864 5865 5865 5865 5865 5865 5865 5865 5865 5865 5865 5865 5865 5865 5865 5864 5863 5863 5863 5863 5863 5862 5862 5861 5861 5860 5859 5858 5858 5858 5857 5856 5855 5854 5854 5853 5852 5851 5850 5850 5849 5848 5847 5846 5845 5845
5805 5808 5811 5814 5814 5815 5819 5821 5823 5823 5823 5825 5828 5830 5833 5834 5834 5835 5837 5839 5841 5843 5845 5846 5847 5848 5849 5851 5852 5854 5855 5857 5858 5859 5859 5860 5860 5861 5862 5863 5864 5864 5864 5864 5864 5864 5864 5864 5864 5864 5864 5864 5864 5864 5863 5862 5862 5862 5862 5862 5861 5861 5860 5860 5859 5858 5857 5857 5856 5856 5855 5854 5853 5853 5852 5851 5850 5849 5848 5847 5846 5845 5845 5844 5843
5802 5804 5807 5809 5810 5811 5814 5817 5819 5820 5821 5823 5825 5827 5829 5831 5831 5832 5834 5836 5838 5840 5842 5843 5844 5845 5847 5848 5850 5852 5853 5855 5856 5857 5858 5858 5859 5860 5861 5862 5863 5863 5864 5864 5864 5863 5863 5863 5863 5863 5863 5863 5863 5862 5862 5862 5861 5861 5861 5861 5860 5860 5859 5859 5858 5857 5856 5855 5855 5854 5854 5853 5852 5852 5851 5850 5849 5848 5847 5846 5845 5844 5843 5843 5842
5798 5800 5802 5804 5805 5807 5810 5813 5815 5817 5818 5820 5821 5821 5823 5825 5826 5828 5830 5832 5834 5836 5838 5839 5841 5843 5844 5846 5848 5850 5851 5853 5854 5855 5856 5857 5857 5858 5859 5860 5861 5862 5862 5863 5863 5862 5862 5862 5862 5862 5862 5861 5861 5861 5861 5860 5860 5860 5860 5860 5859 5859 5858 5857 5857 5856 5855 5854 5853 5853 5852 5852 5851 5850 5850 5849 5848 5847 5846 5845 5844 5843 5842 5841 5841
5792 5795 5798 5800 5801 5803 5806 5809 5812 5813 5814 5816 5817 5818 5820 5822 5823 5824 5826 5828 5831 5833 5834 5836 5838 5840 5841 5843 5845 5847 5849 5851 5852 5853 5854 5854 5855 5856 5857 5859 5860 5860 5861 5862 5862 5861 5861 5861 5861 5861 5861 5860 5860 5860 5860 5859 5859 5859 5859 5859 5858 5858 5857 5856 5856 5855 5854 5853 5852 5851 5851 5851 5850 5849 5848 5847 5846 5845 5845 5843 5843 5842 5841 5840 5839
5787 5790 5793 5796 5798 5800 5803 5805 5807 5808 5810 5812 5813 5815 5819 5821 5823 5823 5824 5826 5828 5830 5831 5833 5835 5837 5838 5840 5842 5844 5846 5848 5850 5851 5851 5852 5853 5854 5855 5857 5858 5859 5859 5860 5861 5861 5860 5860 5860 5860 5860 5859 5859 5859 5858 5858 5858 5857 5857 5857 5857 5857 5856 5855 5855 5854 5853 5852 5851 5850 5850 5850 5849 5848 5847 5846 5845 5844 5843 5842 5841 5840 5840 5839 5838
5783 5785 5788 5791 5794 5796 5798 5801 5804 5805 5807 5809 5810 5812 5815 5818 5821 5823 5824 5825 5827 5828 5830 5831 5832 5834 5836 5838 5839 5841 5843 5845 5848 5849 5849 5850 5851 5852 5853 5854 5856 5857 5858 5859 5859 5859 5859 5859 5859 5859 5859 5858 5858 5858 5857 5857 5856 5856 5856 5856 5856 5855 5855 5854 5854 5853 5852 5851 5850 5849 5849 5848 5848 5847 5846 5845 5844 5843 5842 5841 5840 5839 5838 5838 5837
5779 5781 5783 5787 5789 5791 5793 5797 5801 5802 5803 5805 5806 5809 5811 5814 5817 5819 5820 5822 5824 5826 5828 5829 5831 5832 5834 5835 5836 5838 5840 5842 5844 5846 5847 5848 5849 5850 5851 5852 5853 5854 5855 5857 5858 5858 5858 5858 5858 5858 5857 5857 5857 5857 5856 5856 5855 5855 5855 5854 5854 5854 5853 5853 5853 5852 5851 5850 5849 5848 5848 5847 5847 5846 5845 5844 5843 5842 5841 5840 5839 5838 5837 5836 5835
5774 5776 5779 5782 5785 5786 5788 5792 5797 5798 5800 5802 5802 5804 5807 5810 5813 5814 5815 5817 5819 5822 5824 5827 5829 5830 5832 5833 5834 5835 5837 5839 5841 5843 5845 5846 5847 5848 5849 5850 5851 5852 5853 5855 5856 5856 5857 5857 5857 5856 5856 5856 5856 5856 5855 5855 5854 5854 5854 5853 5852 5852 5852 5852 5852 5851 5850 5849 5848 5848 5847 5846 5845 5844 5843 5842 5842 5841 5840 5839 5838 5837 5836 5835 5834
5770 5772 5774 5777 5781 5782 5784 5788 5792 5794 5796 5798 5800 5802 5804 5806 5808 5810 5812 5814 5816 5819 5821 5824 5826 5828 5829 5830 5831 5832 5834 5836 5838 5840 5842 5843 5845 5846 5847 5848 5849 5850 5851 5852 5854 5854 5855 5855 5855 5855 5855 5855 5855 5855 5854 5854 5853 5853 5852 5852 5851 5851 5851 5851 5851 5850 5849 5848 5847 5847 5846 5845 5845 5843 5842 5841 5840 5839 5838 5837 5836 5836 5835 5834 5833
5765 5767 5769 5772 5776 5778 5780 5784 5787 5789 5791 5794 5797 5800 5803 5804 5806 5808 5810 5812 5814 5817 5819 5822 5824 5825 5826 5827 5828 5829 5831 5833 5835 5837 5839 5841 5842 5843 5844 5845 5846 5847 5848 5850 5851 5852 5853 5853 5854 5854 5853 5853 5853 5853 5853 5853 5852 5852 5851 5850 5850 5849 5849 5849 5850 5849 5848 5847 5847 5846 5845 5845 5843 5842 5841 5840 5839 5838 5837 5836 5835 5835 5834 5833 5831
5760 5763 5765 5768 5771 5773 5776 5779 5782 5784 5786 5790 5793 5797 5800 5802 5804 5805 5806 5808 5811 5814 5816 5818 5820 5822 5823 5825 5826 5827 5828 5830 5832 5834 5836 5838 5839 5840 5841 5842 5843 5844 5846 5847 5849 5850 5850 5851 5852 5852 5852 5852 5852 5852 5852 5851 5851 5850 5850 5849 5848 5848 5848 5848 5848 5847 5847 5846 5846 5845 5844 5843 5842 5841 5840 5839 5838 5837 5836 5835 5834 5833 5832 5831 5830
5756 5759 5761 5763 5766 5769 5772 5774 5777 5779 5781 5785 5789 5793 5797 5798 5800 5801 5802 5805 5808 5810 5813 5815 5816 5818 5820 5822 5823 5825 5826 5827 5829 5831 5833 5834 5836 5838 5839 5840 5841 5842 5843 5845 5846 5847 5848 5849 5850 5850 5850 5851 5851 5851 5850 5850 5850 5849 5848 5847 5847 5847 5846 5846 5846 5846 5845 5845 5844 5844 5843 5842 5841 5840 5839 5838 5837 5836 5835 5834 5833 5832 5831 5830 5829
5751 5754 5756 5759 5761 5764 5767 5769 5772 5774 5776 5780 5785 5788 5790 5792 5793 5796 5798 5801 5804 5807 5810 5812 5814 5816 5817 5818 5820 5823 5824 5826 5827 5828 5830 5831 5833 5835 5837 5838 5839 5840 5841 5842 5844 5845 5846 5847 5848 5848 5849 5849 5849 5849 5849 5848 5848 5848 5847 5846 5846 5845 5845 5845 5844 5844 5844 5843 5843 5842 5842 5841 5840 5838 5837 5837 5836 5835 5834 5832 5831 5831 5830 5829 5828
5745 5748 5752 5754 5757 5760 5763 5764 5767 5769 5771 5776 5779 5781 5784 5786 5787 5790 5794 5798 5801 5804 5807 5811 5814 5816 5816 5817 5819 5821 5822 5824 5825 5826 5827 5828 5830 5833 5834 5836 5837 5838 5839 5840 5841 5842 5843 5844 5845 5846 5846 5847 5847 5847 5847 5847 5846 5846 5845 5845 5844 5843 5843 5843 5843 5842 5842 5842 5841 5841 5840 5839 5838 5837 5836 5835 5834 5833 5832 5831 5830 5830 5829 5827 5827
5739 5742 5746 5749 5751 5754 5758 5760 5763 5765 5768 5771 5773 5775 5778 5780 5781 5784 5790 5794 5798 5802 5806 5809 5812 5813 5814 5814 5816 5818 5820 5821 5822 5823 5824 5826 5828 5830 5831 5833 5834 5835 5836 5837 5838 5839 5841 5841 5842 5843 5844 5845 5845 5845 5845 5845 5844 5844 5844 5843 5842 5842 5841 5842 5841 5841 5840 5840 5839 5839 5838 5837 5836 5836 5835 5834 5833 5832 5831 5830 5829 5828 5828 5827 5826
5732 5736 5740 5743 5746 5749 5752 5756 5758 5761 5764 5766 5768 5770 5772 5773 5775 5780 5785 5789 5794 5799 5802 5805 5807 5808 5809 5810 5812 5815 5817 5818 5819 5820 5821 5823 5825 5827 5829 5830 5831 5832 5833 5834 5836 5837 5838 5839 5840 5841 5842 5842 5843 5843 5843 5843 5842 5842 5842 5841 5840 5840 5840 5840 5840 5839 5839 5838 5837 5837 5836 5835 5834 5834 5833 5833 5832 5830 5829 5828 5828 5827 5826 5826 5825
5726 5729 5733 5737 5740 5743 5746 5750 5753 5755 5759 5761 5763 5765 5766 5769 5771 5775 5780 5786 5790 5794 5797 5799 5801 5803 5804 5807 5809 5812 5813 5815 5816 5817 5819 5820 5822 5824 5826 5828 5829 5830 5830 5832 5833 5834 5836 5837 5837 5838 5839 5840 5840 5841 5841 5841 5840 5840 5840 5839 5839 5838 5838 5837 5838 5837 5837 5836 5835 5834 5834 5833 5832 5832 5832 5831 5830 5829 5828 5827 5826 5826 5825 5824 5823
5719 5723 5726 5730 5734 5737 5740 5744 5747 5750 5754 5757 5759 5761 5763 5766 5768 5770 5775 5781 5786 5790 5792 5794 5796 5798 5801 5803 5806 5808 5810 5811 5813 5815 5816 5818 5820 5821 5823 5825 5826 5827 5828 5829 5830 5831 5833 5834 5835 5835 5836 5837 5838 5838 5839 5838 5838 5838 5838 5837 5837 5836 5836 5835 5835 5835 5835 5834 5833 5833 5832 5831 5830 5830 5830 5829 5829 5828 5827 5826 5825 5825 5824 5823 5822
5712 5716 5719 5723 5727 5730 5734 5738 5742 5745 5748 5752 5755 5757 5758 5762 5765 5767 5772 5777 5781 5785 5787 5789 5791 5794 5797 5800 5802 5805 5806 5808 5810 5812 5814 5815 5817 5818 5820 5822 5823 5824 5825 5826 5827 5829 5830 5831 5832 5833 5834 5834 5835 5836 5836 5836 5836 5836 5836 5835 5835 5834 5834 5833 5833 5833 5832 5832 5831 5831 5831 5830 5829 5828 5828 5827 5827 5826 5826 5825 5824 5823 5822 5821 5820
5705 5708 5712 5716 5720 5724 5728 5732 5736 5739 5742 5746 5750 5752 5754 5757 5762 5765 5769 5772 5776 5779 5782 5784 5787 5790 5793 5796 5799 5801 5802 5805 5807 5809 5811 5813 5814 5816 5817 5819 5820 5822 5823 5823 5825 5826 5827 5828 5829 5830 5831 5831 5832 5833 5833 5833 5833 5833 5833 5833 5832 5832 5832 5832 5831 5831 5830 5830 5829 5829 5829 5828 5827 5826 5826 5825 5825 5825 5824 5823 5823 5822 5821 5820 5819